Westhampton Beach, NY

12:23 PM EDT on April 30, 2017 (GMT -0400)
The Gabreski

Weather History for KFOK - October, 2011

Change the Weather History Date:

Friday, October 14, 2011

  Actual Average Record
Temperature  
Mean Temperature 65 °F -  
Max Temperature 70 °F 61 °F 75 °F (2014)
Min Temperature 60 °F 40 °F 28 °F (2006)
Growing Degree Days 15 (Base 50)    
Moisture  
Dew Point 64 °F    
Average Humidity 91    
Maximum Humidity 100    
Minimum Humidity 67    
Precipitation  
Precipitation 0.14 in - - ()
Sea Level Pressure  
Sea Level Pressure 29.57 in    
Wind  
Wind Speed 10 mph (SSE)    
Max Wind Speed 16 mph    
Max Gust Speed 25 mph    
Visibility 6 miles    
Events Rain    
Averages and records for this station are not official NWS values.
T = Trace of Precipitation, MM = Missing Value Source: NWS Daily Summary

Daily Weather History Graph

Daily Weather History Graph

Search for Another Location

Airport or City:

Trip Planner

Search our weather history database for the weather conditions in past years. The results will help you decide how hot, cold, wet, or windy it might be!

Date:

Astronomy

Oct. 14, 2011 Rise Set
Actual Time 7:00 AM EDT 6:12 PM EDT
Civil Twilight 6:32 AM EDT 6:39 PM EDT
Nautical Twilight 6:01 AM EDT 7:11 PM EDT
Astronomical Twilight 5:29 AM EDT 7:43 PM EDT
Moon 7:22 PM EDT (10/14) 9:27 AM EDT (10/14)
Length of Visible Light 12h 06m
Length of Day
11h 11m
Waning Gibbous, 94% of the Moon is Illuminated
Oct 14
Waning Gibbous
Oct 19
Last Quarter
Oct 26
New
Nov 2
First Quarter
Nov 10
Full

Hourly Weather History & Observations

Time (EDT) Temp. Dew Point Humidity Pressure Visibility Wind Dir Wind Speed Gust Speed Precip Events Conditions
12:48 AM 64.4 °F 62.6 °F 94% 29.72 in 1.2 mi East 8.1 mph - 0.00 in   Overcast
12:53 AM 64.0 °F 63.0 °F 96% 29.72 in 1.2 mi East 10.4 mph - 0.00 in   Overcast
1:53 AM 64.9 °F 64.0 °F 97% 29.68 in 2.0 mi East 6.9 mph - 0.00 in   Overcast
2:08 AM 64.4 °F 64.4 °F 100% 29.69 in 4.0 mi ESE 10.4 mph - 0.01 in Rain Light Rain
2:53 AM 66.0 °F 64.9 °F 96% 29.69 in 9.0 mi ESE 6.9 mph - 0.01 in   Overcast
3:53 AM 66.0 °F 64.9 °F 96% 29.68 in 8.0 mi SE 4.6 mph - N/A   Overcast
4:34 AM 66.2 °F 64.4 °F 94% 29.67 in 1.8 mi ESE 5.8 mph - N/A   Overcast
4:53 AM 66.9 °F 66.0 °F 97% 29.67 in 0.8 mi SE 6.9 mph - N/A   Mist
5:10 AM 68.0 °F 66.2 °F 94% 29.67 in 1.8 mi SSE 8.1 mph - N/A   Overcast
5:21 AM 66.2 °F 66.2 °F 100% 29.66 in 3.0 mi SSE 6.9 mph - N/A   Overcast
5:53 AM 68.0 °F 66.0 °F 93% 29.65 in 9.0 mi SE 10.4 mph - N/A   Overcast
6:04 AM 68.0 °F 66.2 °F 94% 29.66 in 10.0 mi SE 9.2 mph - N/A   Overcast
6:11 AM 68.0 °F 66.2 °F 94% 29.66 in 10.0 mi SE 8.1 mph - N/A   Overcast
6:41 AM 66.2 °F 66.2 °F 100% 29.65 in 9.0 mi SE 9.2 mph 18.4 mph N/A   Overcast
6:53 AM 68.0 °F 66.0 °F 93% 29.65 in 10.0 mi SE 10.4 mph - N/A   Overcast
7:48 AM 68.0 °F 66.2 °F 94% 29.64 in 5.0 mi SE 12.7 mph 18.4 mph 0.01 in Rain Light Rain
7:53 AM 68.0 °F 66.0 °F 93% 29.63 in 4.0 mi SE 11.5 mph 21.9 mph 0.01 in Rain Light Rain
8:16 AM 68.0 °F 66.2 °F 94% 29.63 in 1.8 mi SSE 11.5 mph 18.4 mph 0.04 in Rain Rain
8:27 AM 68.0 °F 66.2 °F 94% 29.62 in 1.2 mi SE 11.5 mph 18.4 mph 0.10 in Rain Rain
8:32 AM 68.0 °F 66.2 °F 94% 29.62 in 2.5 mi SE 12.7 mph 21.9 mph 0.10 in Rain Light Rain
8:38 AM 68.0 °F 66.2 °F 94% 29.62 in 5.0 mi SSE 12.7 mph 19.6 mph 0.10 in Rain Light Rain
8:59 AM 68.0 °F 66.2 °F 94% 29.61 in 2.0 mi SSE 13.8 mph 21.9 mph 0.05 in Rain Light Rain
9:06 AM 68.0 °F 66.2 °F 94% 29.61 in 1.2 mi SSE 9.2 mph 21.9 mph 0.08 in Rain Light Rain
9:11 AM 68.0 °F 66.2 °F 94% 29.61 in 3.0 mi SSE 9.2 mph 18.4 mph 0.08 in Rain Light Rain
9:18 AM 68.0 °F 66.2 °F 94% 29.60 in 2.5 mi SE 13.8 mph 19.6 mph 0.10 in Rain Light Rain
9:28 AM 68.0 °F 66.2 °F 94% 29.60 in 7.0 mi SSE 10.4 mph - 0.10 in   Overcast
9:42 AM 68.0 °F 66.2 °F 94% 29.59 in 2.5 mi SSE 10.4 mph 19.6 mph 0.11 in Rain Light Rain
9:50 AM 68.0 °F 66.2 °F 94% 29.59 in 6.0 mi SSE 11.5 mph 19.6 mph 0.11 in Rain Light Rain
9:53 AM 68.0 °F 66.0 °F 93% 29.59 in 8.0 mi SSE 13.8 mph 19.6 mph 0.11 in   Overcast
10:53 AM 68.0 °F 66.0 °F 93% 29.57 in 8.0 mi SSE 12.7 mph 18.4 mph 0.00 in   Overcast
11:28 AM 69.8 °F 66.2 °F 88% 29.56 in 8.0 mi SSE 10.4 mph 21.9 mph 0.00 in Rain Light Rain
12:32 PM 68.0 °F 66.2 °F 94% 29.54 in 7.0 mi SSE 10.4 mph - 0.00 in Rain Light Rain
12:53 PM 68.0 °F 66.0 °F 93% 29.53 in 6.0 mi South 11.5 mph 18.4 mph 0.00 in   Overcast
1:53 PM 70.0 °F 66.9 °F 90% 29.48 in 8.0 mi SSE 9.2 mph 18.4 mph 0.01 in   Overcast
3:44 PM 69.8 °F 64.4 °F 83% 29.44 in 10.0 mi South 8.1 mph - N/A   Overcast
3:53 PM 68.0 °F 64.9 °F 90% 29.44 in 10.0 mi SSE 9.2 mph - N/A   Mostly Cloudy
4:42 PM 66.2 °F 64.4 °F 94% 29.43 in 8.0 mi SSE 11.5 mph 18.4 mph 0.00 in Rain Light Rain
4:53 PM 68.0 °F 64.0 °F 87% 29.42 in 10.0 mi SSE 13.8 mph 21.9 mph 0.00 in   Overcast
5:17 PM 66.2 °F 62.6 °F 88% 29.42 in 10.0 mi South 12.7 mph 18.4 mph N/A   Scattered Clouds
5:53 PM 64.9 °F 62.1 °F 90% 29.41 in 9.0 mi South 8.1 mph 16.1 mph N/A   Overcast
6:34 PM 66.2 °F 62.6 °F 88% 29.41 in 10.0 mi South 8.1 mph 16.1 mph N/A   Overcast
6:53 PM 66.0 °F 62.1 °F 87% 29.41 in 10.0 mi SSW 13.8 mph 21.9 mph N/A   Overcast
7:25 PM 64.4 °F 57.2 °F 77% 29.41 in 10.0 mi SW 12.7 mph 21.9 mph N/A   Mostly Cloudy
7:53 PM 63.0 °F 57.0 °F 81% 29.41 in 10.0 mi SW 10.4 mph - N/A   Scattered Clouds
8:53 PM 63.0 °F 57.0 °F 81% 29.43 in 10.0 mi WSW 12.7 mph 19.6 mph N/A   Scattered Clouds
9:53 PM 61.0 °F 53.1 °F 75% 29.47 in 10.0 mi West 16.1 mph - N/A   Partly Cloudy
10:53 PM 60.1 °F 51.1 °F 72% 29.49 in 10.0 mi WSW 12.7 mph - N/A   Clear
11:53 PM 61.0 °F 50.0 °F 67% 29.51 in 10.0 mi WSW 16.1 mph 25.3 mph N/A   Partly Cloudy